[[{"header":{"parameterUnit":"m.s-1","parameterCategory":1,"la1":30.2991,"la2":30.254,"lo1":-89.0895,"lo2":-89.0444,"dy":0.0017,"dx":0.0017,"nx":28,"ny":28,"refTime":"2026-01-05T09:00:00:Z","depth":0,"parameterNumber":2,"parameterNumberName":"U-component_of_WINDS"},"data":[0,0,0,0,0,0,0,0,0,0,0,0,0,0,0,0,0,0,0,0,0,0,0,0,0,0,0,0,0,0,0,0,0,0,0,0,0,0,0,0,0,0,0,0,0,0,0,0,0,0,0,0,0,0,0,0,0,0,2.3718,2.3719,0,2.3784,2.3785,2.3786,2.3751,2.375,2.3748,2.3746,2.382,2.3824,2.3827,0,0,0,0,0,0,0,0,0,0,0,0,0,2.3568,2.3571,2.3718,2.3719,2.372,2.3784,2.3785,2.3786,2.3752,2.375,2.3747,2.3745,2.3819,2.3823,2.3828,0,0,0,0,0,0,0,0,0,0,0,0,0,2.3634,2.3572,2.3718,2.371,2.371,2.3784,2.3785,2.3786,2.3752,2.3749,2.3747,2.3744,2.3818,2.3823,2.3828,2.3916,0,0,2.3845,2.3847,0,0,0,0,0,0,0,0,2.363,2.364,2.3711,2.3711,2.3711,2.3757,2.376,2.383,2.3753,2.3736,2.3746,2.3743,2.3802,2.3808,2.3827,2.3919,2.3922,2.3846,2.3849,2.3851,2.3853,0,0,0,0,0,0,0,2.3626,2.3637,2.3744,2.3712,2.3712,2.3706,2.3712,2.3773,2.3784,2.3738,2.3735,2.3743,2.3801,2.3822,2.3828,2.3923,2.3845,2.385,2.3854,2.3856,2.4092,2.4095,0,0,0,0,0,0,2.3621,2.3633,2.3742,2.3746,2.3663,2.371,2.3718,2.3745,2.3783,2.3786,2.3745,2.3741,2.3814,2.3822,2.3831,2.3936,2.3851,2.3856,2.3859,2.4089,2.4093,2.4096,0,0,0,0,0,0,2.3618,2.3631,2.374,2.3689,2.3702,2.3716,2.3747,2.3748,2.3768,2.3788,2.3791,2.3764,2.3812,2.3823,2.3895,2.3938,2.3859,2.3864,2.4086,2.409,2.4095,2.4147,0,0,0,0,0,0,2.3614,2.363,2.3662,2.369,2.3705,2.3801,2.3749,2.3751,2.3776,2.3772,2.3806,2.381,2.3811,2.3887,2.39,2.3944,2.3868,2.4082,2.4088,2.4093,2.4142,2.4153,2.4163,0,0,0,0,0,2.3608,2.3675,2.3663,2.3677,2.3745,2.3803,2.3812,2.381,2.378,2.3813,2.3827,2.3808,2.3931,2.3894,2.3909,2.3956,2.4079,2.4086,2.4093,2.4137,2.4151,2.4162,0,0,0,0,0,0,2.3653,2.3678,2.3666,2.3743,2.3771,2.3797,2.3838,2.3825,2.3863,2.3857,2.3855,2.3864,2.3938,2.3954,2.3912,2.4043,2.4001,2.4011,2.403,2.4043,2.4053,2.4048,2.3873,0,0,0,0,0,2.3672,2.3715,2.3735,2.3802,2.3816,2.3825,2.385,2.3846,2.3876,2.3888,2.3907,2.3938,2.3984,2.4014,2.4058,2.4144,2.4152,2.4183,2.4194,2.4202,2.4211,2.426,2.4274,2.4119,2.4118,2.4118,0,0,2.3711,2.373,2.3758,2.3811,2.3832,2.3879,2.3835,2.3887,2.3922,2.3897,2.3965,2.398,2.4015,2.4095,2.4131,2.411,2.4256,2.4211,2.4218,2.4222,2.4268,2.4283,2.4296,2.4123,2.4122,2.4122,0,0,2.3807,2.3825,2.3882,2.3904,2.3936,2.3942,2.3956,2.3984,2.3993,2.4061,2.4043,2.4086,2.4165,2.4191,2.4214,2.4321,2.4306,2.4335,2.439,2.4437,2.4449,2.446,2.4499,2.4513,2.4344,2.4344,2.4344,0,2.3852,2.392,2.3914,2.3967,2.3992,2.3969,2.4029,2.4051,2.4097,2.4115,2.4091,2.419,2.4212,2.4298,2.4323,2.4343,2.436,2.4331,2.4448,2.4459,2.4469,2.4506,2.4521,2.4347,2.4347,2.4347,2.4346,0,2.3975,2.4022,2.4065,2.4107,2.4137,2.4193,2.4198,2.423,2.4224,2.4233,2.4303,2.4329,2.4377,2.4397,2.4393,2.4483,2.447,2.4447,2.4405,2.4487,2.4522,2.4536,2.4352,2.4351,2.435,2.4349,0,0,2.41,2.4138,2.4154,2.4174,2.4208,2.4246,2.4302,2.4347,2.4374,2.4407,2.4455,2.4522,2.4502,2.4528,2.4527,2.4568,2.4652,2.454,2.4541,2.4561,2.4755,2.4772,2.4788,2.4642,2.4645,2.4647,2.4752,0,2.4198,2.4293,2.429,2.438,2.4425,2.4405,2.4454,2.4482,2.4492,2.4533,2.4546,2.4593,2.4562,2.4578,2.4618,2.4633,2.4691,2.4626,2.4689,2.4691,2.4681,2.4806,2.4824,2.4922,2.4766,2.4768,2.477,0,2.4325,2.436,2.4453,2.4481,2.45,2.4544,2.4586,2.4625,2.4657,2.4662,2.4692,2.4684,2.4743,2.4699,2.4782,2.4738,2.4764,2.4775,2.4779,2.4785,2.4736,2.4817,2.4953,2.4968,2.4791,2.4789,2.4788,0,2.4407,2.4478,2.4543,2.4561,2.4595,2.4627,2.4643,2.4672,2.47,2.4737,2.4756,2.4801,2.4826,2.4862,2.4867,2.4834,2.4951,2.4907,2.4958,2.4958,2.4983,2.4982,2.5127,2.5,2.5,2.4999,2.4999,0,2.4517,2.4575,2.4581,2.4621,2.4687,2.4684,2.475,2.4764,2.479,2.4834,2.4821,2.4863,2.4867,2.4912,2.4917,2.4985,2.4997,2.5004,2.5004,2.5005,2.5004,2.5022,2.5016,2.5003,2.5002,2.5002,2.5001,0,2.462,2.4626,2.4696,2.4723,2.4731,2.4778,2.4802,2.4842,2.4851,2.4907,2.4921,2.4936,2.4987,2.4996,2.5057,2.5061,2.5143,2.5137,2.5132,2.5131,2.5182,2.5177,2.5343,2.5366,2.5224,2.5225,2.5226,0,2.469,2.4734,2.4765,2.4793,2.481,2.4856,2.4884,2.4884,2.4914,2.4955,2.499,2.504,2.5079,2.5164,2.5181,2.5229,2.5224,2.5279,2.5231,2.523,2.5225,2.5223,2.5228,2.5288,2.529,2.5291,2.5292,0,2.4813,2.4814,2.4854,2.4895,2.4929,2.4962,2.4993,2.5018,2.5022,2.5058,2.5109,2.514,2.5202,2.5253,2.53,2.5319,2.5308,2.5307,2.5321,2.5323,2.5318,2.5322,2.5157,2.5303,2.5302,2.5301,2.5301,2.53,2.4902,2.4941,2.4969,2.5014,2.5038,2.5068,2.5106,2.512,2.5162,2.5211,2.521,2.5267,2.53,2.5361,2.5384,2.543,2.5413,2.5433,2.5439,2.5444,2.5449,2.531,2.5439,2.5439,2.5438,2.5438,2.5438,0,2.5025,2.5042,2.5084,2.5127,2.5164,2.5148,2.5182,2.5214,2.5264,2.5294,2.5334,2.5394,2.5443,2.5465,2.5514,2.5547,2.5543,2.556,2.5558,2.5563,2.5462,2.5444,2.5562,2.5562,2.5562,2.5562,2.5562,2.5562,2.5093,2.5158,2.5162,2.524,2.5257,2.5311,2.5333,2.5361,2.5385,2.5453,2.5493,2.5506,2.5534,2.5585,2.563,2.5635,2.5654,2.5674,2.5677,2.5582,2.557,2.5558,2.5541,2.5678,2.5678,2.5774,2.5775,2.5776]},{"header":{"parameterUnit":"m.s-1","parameterCategory":1,"la1":30.2991,"la2":30.254,"lo1":-89.0895,"lo2":-89.0444,"dy":0.0017,"dx":0.0017,"nx":28,"ny":28,"refTime":"2026-01-05T09:00:00:Z","depth":0,"parameterNumber":3,"parameterNumberName":"V-component_of_WINDS"},"data":[0,0,0,0,0,0,0,0,0,0,0,0,0,0,0,0,0,0,0,0,0,0,0,0,0,0,0,0,0,0,0,0,0,0,0,0,0,0,0,0,0,0,0,0,0,0,0,0,0,0,0,0,0,0,0,0,0,0,1.5805,1.5805,0,1.5848,1.5848,1.5849,1.5842,1.5841,1.584,1.584,1.5883,1.5885,1.5887,0,0,0,0,0,0,0,0,0,0,0,0,0,1.5717,1.5718,1.5805,1.5806,1.5806,1.5848,1.5848,1.5849,1.5842,1.5841,1.584,1.5839,1.5883,1.5885,1.5887,0,0,0,0,0,0,0,0,0,0,0,0,0,1.5757,1.5719,1.5805,1.5808,1.5808,1.5847,1.5848,1.5849,1.5842,1.5841,1.584,1.5839,1.5882,1.5884,1.5887,1.5926,0,0,1.5896,1.5897,0,0,0,0,0,0,0,0,1.5755,1.576,1.5807,1.5808,1.5808,1.5838,1.5833,1.5875,1.5842,1.5829,1.584,1.5838,1.5869,1.5873,1.5883,1.5928,1.593,1.5896,1.5898,1.5899,1.5899,0,0,0,0,0,0,0,1.5752,1.5758,1.5822,1.5807,1.5808,1.5807,1.5811,1.5841,1.5855,1.583,1.583,1.5835,1.5869,1.5881,1.5884,1.5931,1.5896,1.5898,1.59,1.5901,1.6009,1.601,0,0,0,0,0,0,1.5748,1.5756,1.582,1.5823,1.5778,1.5809,1.5814,1.583,1.5854,1.5857,1.5836,1.5835,1.5876,1.5881,1.5886,1.5933,1.5899,1.5901,1.5903,1.6008,1.6009,1.601,0,0,0,0,0,0,1.5746,1.5754,1.5819,1.5789,1.5798,1.5812,1.5829,1.5831,1.5843,1.5859,1.5861,1.5845,1.5876,1.5882,1.5916,1.5934,1.5903,1.5905,1.6006,1.6008,1.601,1.6027,0,0,0,0,0,0,1.5744,1.5754,1.5769,1.579,1.5799,1.5849,1.5831,1.5833,1.5847,1.5846,1.5868,1.587,1.5875,1.5912,1.5919,1.5937,1.5907,1.6005,1.6007,1.6009,1.6025,1.6029,1.6033,0,0,0,0,0,1.5741,1.5772,1.577,1.5777,1.5819,1.585,1.5855,1.586,1.5849,1.5864,1.5874,1.587,1.5931,1.5915,1.5923,1.5943,1.6003,1.6006,1.6009,1.6023,1.6028,1.6033,0,0,0,0,0,0,1.5753,1.5775,1.5772,1.5811,1.5829,1.5849,1.5868,1.5866,1.5887,1.5884,1.589,1.5895,1.5929,1.5939,1.5922,1.5981,1.5965,1.597,1.5974,1.5979,1.5983,1.598,1.5909,0,0,0,0,0,1.576,1.5784,1.5802,1.5834,1.5843,1.5854,1.5868,1.587,1.5888,1.5896,1.5909,1.5926,1.5949,1.5964,1.5987,1.6026,1.603,1.6043,1.6047,1.605,1.6054,1.6075,1.6081,1.6019,1.6019,1.6019,0,0,1.5775,1.579,1.5805,1.5837,1.5851,1.5875,1.586,1.5887,1.5905,1.59,1.5933,1.5943,1.5963,1.5999,1.6016,1.6009,1.6072,1.6054,1.6056,1.6058,1.6079,1.6084,1.609,1.6021,1.6021,1.602,0,0,1.5816,1.5829,1.5858,1.5872,1.5892,1.5899,1.5906,1.5926,1.5933,1.5966,1.5962,1.5983,1.6023,1.6037,1.605,1.6094,1.609,1.6101,1.6122,1.6142,1.6147,1.6152,1.6167,1.6173,1.6105,1.6105,1.6105,0,1.5832,1.5869,1.5873,1.59,1.5914,1.591,1.5938,1.5951,1.5978,1.5988,1.5979,1.6029,1.6042,1.6082,1.6092,1.6102,1.611,1.6099,1.6146,1.6151,1.6155,1.617,1.6176,1.6106,1.6106,1.6105,1.6105,0,1.5888,1.5913,1.5933,1.5959,1.5976,1.6003,1.6011,1.6027,1.6027,1.6035,1.6068,1.6084,1.6109,1.6118,1.6119,1.6158,1.6153,1.6145,1.6129,1.6162,1.6176,1.6182,1.6107,1.6107,1.6107,1.6106,0,0,1.5938,1.5965,1.5973,1.5984,1.6006,1.6026,1.6052,1.6077,1.609,1.6108,1.6131,1.6164,1.6157,1.6171,1.6173,1.6191,1.6225,1.6181,1.6181,1.6189,1.6268,1.6274,1.6281,1.6222,1.6223,1.6224,1.6267,0,1.598,1.6028,1.6032,1.6075,1.6099,1.6094,1.6118,1.6134,1.6141,1.6162,1.617,1.6193,1.6182,1.619,1.6207,1.6217,1.6241,1.6214,1.6243,1.6244,1.6239,1.6288,1.6295,1.6334,1.6272,1.6273,1.6274,0,1.6037,1.6057,1.6102,1.612,1.613,1.6151,1.6173,1.6193,1.621,1.6214,1.6229,1.6229,1.6256,1.6239,1.6276,1.6257,1.6269,1.6276,1.6277,1.6281,1.6261,1.6293,1.6347,1.6353,1.6283,1.6282,1.6281,0,1.6069,1.6107,1.6139,1.6149,1.6171,1.6185,1.6195,1.6211,1.6226,1.6245,1.6254,1.6276,1.6288,1.6305,1.631,1.6297,1.6347,1.633,1.6351,1.6351,1.6362,1.6362,1.6419,1.6369,1.6369,1.6369,1.6369,0,1.6116,1.6144,1.6153,1.6173,1.6204,1.6208,1.6238,1.6247,1.6261,1.6282,1.628,1.6299,1.6305,1.6325,1.6329,1.6359,1.6365,1.6369,1.637,1.6369,1.6369,1.6378,1.6375,1.6371,1.637,1.637,1.637,0,1.6158,1.6165,1.62,1.6217,1.6222,1.6244,1.6259,1.6278,1.6284,1.6311,1.6317,1.6328,1.6352,1.6358,1.6387,1.6389,1.6425,1.6423,1.6419,1.6419,1.644,1.6438,1.6505,1.6514,1.6458,1.6459,1.6459,0,1.6188,1.621,1.6229,1.6243,1.6253,1.6276,1.629,1.6294,1.6309,1.633,1.6346,1.6369,1.6388,1.6426,1.6436,1.6458,1.6457,1.6479,1.646,1.6459,1.6457,1.6456,1.6458,1.6483,1.6483,1.6484,1.6484,0,1.6241,1.6243,1.6264,1.6285,1.6302,1.632,1.6336,1.6348,1.6354,1.6371,1.6395,1.641,1.6438,1.6462,1.6483,1.6493,1.649,1.649,1.6496,1.6496,1.6493,1.6495,1.6429,1.6488,1.6488,1.6488,1.6487,1.6487,1.6278,1.6296,1.6313,1.6336,1.6348,1.6364,1.6382,1.6391,1.6411,1.6435,1.6436,1.6462,1.6478,1.6507,1.6517,1.6537,1.6531,1.654,1.6542,1.6544,1.6546,1.6489,1.6541,1.6541,1.6541,1.6541,1.6541,0,1.633,1.634,1.6361,1.6385,1.6402,1.6397,1.6415,1.643,1.6453,1.6468,1.6487,1.6515,1.6537,1.6548,1.657,1.6584,1.6583,1.6589,1.6589,1.6591,1.655,1.6543,1.659,1.659,1.659,1.659,1.659,1.659,1.636,1.6391,1.6395,1.6432,1.6442,1.6468,1.6478,1.6492,1.6504,1.6535,1.6553,1.656,1.6574,1.6596,1.6616,1.6619,1.6627,1.6634,1.6636,1.6599,1.6594,1.6589,1.6582,1.6636,1.6636,1.6675,1.6675,1.6675]}]]